User: anonymous   Login
Location: Caltech
(34.1382°N, 118.1253°W)
Time: 00:05:47
(UTC-07:00)
Language:

Cosmos 1758 Rocket - Orbit

View from above orbital plane
View from above orbital plane
View from above satellite
View from above satellite

Ground track
Ground track

The orbit data is extracted from the following two-line orbital elements,

1 16792U 86046B   16241.18656623  .00000084  00000-0  73694-5 0  9996
2 16792  82.4828 118.1032 0024348 174.2834 301.7151 14.83083731631450
Epoch (UTC): 28 August 2016 04:28:39
Eccentricity: 0.0024348
inclination: 82.4828°
perigee height: 602 km
apogee height: 636 km
right ascension of ascending node: 118.1032°
argument of perigee: 174.2834°
revolutions per day: 14.83083731
mean anomaly at epoch: 301.7151°
orbit number at epoch: 63145

The dashed part of the orbit path shows where the satellite is in the earth's shadow,  

DLR